Year,Month,Day,Hour,Minute,Value (Times are PST for temperature in C)
2009,09,29,00,00,8.70
2009,09,29,00,01,8.70
2009,09,29,00,02,8.70
2009,09,29,00,03,8.70
2009,09,29,00,04,8.70
2009,09,29,00,05,8.70
2009,09,29,00,06,8.80
2009,09,29,00,07,8.80
2009,09,29,00,08,8.80
2009,09,29,00,09,8.90
2009,09,29,00,10,8.90
2009,09,29,00,11,8.90
2009,09,29,00,12,8.90
2009,09,29,00,13,9.00
2009,09,29,00,14,9.00
2009,09,29,00,15,9.10
2009,09,29,00,16,9.20
2009,09,29,00,17,9.20
2009,09,29,00,18,9.30
2009,09,29,00,19,9.30
2009,09,29,00,20,9.40
2009,09,29,00,21,9.50
2009,09,29,00,22,9.70
2009,09,29,00,23,9.90
2009,09,29,00,24,10.10
2009,09,29,00,25,10.20
2009,09,29,00,26,10.30
2009,09,29,00,27,10.40
2009,09,29,00,28,10.50
2009,09,29,00,29,10.50
2009,09,29,00,30,10.60
2009,09,29,00,31,10.70
2009,09,29,00,32,10.70
2009,09,29,00,33,10.70
2009,09,29,00,34,10.70
2009,09,29,00,35,10.70
2009,09,29,00,36,10.70
2009,09,29,00,37,10.80
2009,09,29,00,38,10.80
2009,09,29,00,39,10.80
2009,09,29,00,40,10.80
2009,09,29,00,41,10.70
2009,09,29,00,42,10.70
2009,09,29,00,43,10.70
2009,09,29,00,44,10.60
2009,09,29,00,45,10.50
2009,09,29,00,46,10.40
2009,09,29,00,47,10.40
2009,09,29,00,48,10.30
2009,09,29,00,49,10.20
2009,09,29,00,50,10.20
2009,09,29,00,51,10.10
2009,09,29,00,52,10.00
2009,09,29,00,53,9.90
2009,09,29,00,54,9.90
2009,09,29,00,55,9.80
2009,09,29,00,56,9.80
2009,09,29,00,57,9.70
2009,09,29,00,58,9.70
2009,09,29,00,59,9.60
2009,09,29,01,00,9.50
2009,09,29,01,01,9.50
2009,09,29,01,02,9.40
2009,09,29,01,03,9.30
2009,09,29,01,04,9.30
2009,09,29,01,05,9.20
2009,09,29,01,06,9.20
2009,09,29,01,07,9.20
2009,09,29,01,08,9.10
2009,09,29,01,09,9.10
2009,09,29,01,10,9.00
2009,09,29,01,11,8.90
2009,09,29,01,12,8.90
2009,09,29,01,13,8.80
2009,09,29,01,14,8.70
2009,09,29,01,15,8.70
2009,09,29,01,16,8.60
2009,09,29,01,17,8.50
2009,09,29,01,18,8.40
2009,09,29,01,19,8.40
2009,09,29,01,20,8.30
2009,09,29,01,21,8.20
2009,09,29,01,22,8.10
2009,09,29,01,23,8.10
2009,09,29,01,24,8.00
2009,09,29,01,25,7.90
2009,09,29,01,26,7.80
2009,09,29,01,27,7.80
2009,09,29,01,28,7.70
2009,09,29,01,29,7.70
2009,09,29,01,30,7.60
2009,09,29,01,31,7.60
2009,09,29,01,32,7.60
2009,09,29,01,33,7.50
2009,09,29,01,34,7.50
2009,09,29,01,35,7.50
2009,09,29,01,36,7.40
2009,09,29,01,37,7.40
2009,09,29,01,38,7.40
2009,09,29,01,39,7.30
2009,09,29,01,40,7.30
2009,09,29,01,41,7.30
2009,09,29,01,42,7.30
2009,09,29,01,43,7.30
2009,09,29,01,44,7.30
2009,09,29,01,45,7.20
2009,09,29,01,46,7.20
2009,09,29,01,47,7.20
2009,09,29,01,48,7.10
2009,09,29,01,49,7.00
2009,09,29,01,50,7.00
2009,09,29,01,51,6.90
2009,09,29,01,52,6.80
2009,09,29,01,53,6.80
2009,09,29,01,54,6.70
2009,09,29,01,55,6.70
2009,09,29,01,56,6.60
2009,09,29,01,57,6.60
2009,09,29,01,58,6.50
2009,09,29,01,59,6.50
2009,09,29,02,00,6.40
2009,09,29,02,01,6.40
2009,09,29,02,02,6.40
2009,09,29,02,03,6.40
2009,09,29,02,04,6.40
2009,09,29,02,05,6.40
2009,09,29,02,06,6.40
2009,09,29,02,07,6.40
2009,09,29,02,08,6.40
2009,09,29,02,09,6.40
2009,09,29,02,10,6.30
2009,09,29,02,11,6.30
2009,09,29,02,12,6.30
2009,09,29,02,13,6.30
2009,09,29,02,14,6.20
2009,09,29,02,15,6.20
2009,09,29,02,16,6.20
2009,09,29,02,17,6.20
2009,09,29,02,18,6.20
2009,09,29,02,19,6.10
2009,09,29,02,20,6.10
2009,09,29,02,21,6.10
2009,09,29,02,22,6.10
2009,09,29,02,23,6.10
2009,09,29,02,24,6.10
2009,09,29,02,25,6.10
2009,09,29,02,26,6.10
2009,09,29,02,27,6.10
2009,09,29,02,28,6.10
2009,09,29,02,29,6.10
2009,09,29,02,30,6.10
2009,09,29,02,31,6.10
2009,09,29,02,32,6.00
2009,09,29,02,33,6.00
2009,09,29,02,34,6.00
2009,09,29,02,35,6.00
2009,09,29,02,36,6.00
2009,09,29,02,37,6.00
2009,09,29,02,38,6.00
2009,09,29,02,39,6.00
2009,09,29,02,40,6.00
2009,09,29,02,41,6.00
2009,09,29,02,42,6.00
2009,09,29,02,43,6.00
2009,09,29,02,44,6.00
2009,09,29,02,45,6.00
2009,09,29,02,46,6.00
2009,09,29,02,47,5.90
2009,09,29,02,48,5.90
2009,09,29,02,49,5.90
2009,09,29,02,50,5.90
2009,09,29,02,51,5.90
2009,09,29,02,52,5.90
2009,09,29,02,53,5.90
2009,09,29,02,54,5.90
2009,09,29,02,55,5.90
2009,09,29,02,56,5.90
2009,09,29,02,57,5.90
2009,09,29,02,58,5.90
2009,09,29,02,59,5.90
2009,09,29,03,00,5.90
2009,09,29,03,01,5.90
2009,09,29,03,02,5.90
2009,09,29,03,03,5.90
2009,09,29,03,04,5.90
2009,09,29,03,05,5.90
2009,09,29,03,06,5.90
2009,09,29,03,07,5.90
2009,09,29,03,08,5.90
2009,09,29,03,09,5.90
2009,09,29,03,10,5.90
2009,09,29,03,11,5.90
2009,09,29,03,12,5.90
2009,09,29,03,13,5.90
2009,09,29,03,14,5.90
2009,09,29,03,15,5.90
2009,09,29,03,16,5.90
2009,09,29,03,17,5.90
2009,09,29,03,18,5.90
2009,09,29,03,19,5.90
2009,09,29,03,20,5.90
2009,09,29,03,21,5.90
2009,09,29,03,22,5.90
2009,09,29,03,23,5.90
2009,09,29,03,24,5.90
2009,09,29,03,25,5.90
2009,09,29,03,26,6.00
2009,09,29,03,27,6.00
2009,09,29,03,28,6.00
2009,09,29,03,29,6.10
2009,09,29,03,30,6.10
2009,09,29,03,31,6.10
2009,09,29,03,32,6.10
2009,09,29,03,33,6.10
2009,09,29,03,34,6.20
2009,09,29,03,35,6.20
2009,09,29,03,36,6.20
2009,09,29,03,37,6.20
2009,09,29,03,38,6.20
2009,09,29,03,39,6.20
2009,09,29,03,40,6.20
2009,09,29,03,41,6.20
2009,09,29,03,42,6.20
2009,09,29,03,43,6.20
2009,09,29,03,44,6.20
2009,09,29,03,45,6.20
2009,09,29,03,46,6.20
2009,09,29,03,47,6.20
2009,09,29,03,48,6.20
2009,09,29,03,49,6.20
2009,09,29,03,50,6.30
2009,09,29,03,51,6.30
2009,09,29,03,52,6.30
2009,09,29,03,53,6.30
2009,09,29,03,54,6.30
2009,09,29,03,55,6.30
2009,09,29,03,56,6.30
2009,09,29,03,57,6.30
2009,09,29,03,58,6.30
2009,09,29,03,59,6.30
2009,09,29,04,00,6.30
2009,09,29,04,01,6.30
2009,09,29,04,02,6.30
2009,09,29,04,03,6.40
2009,09,29,04,04,6.40
2009,09,29,04,05,6.40
2009,09,29,04,06,6.40
2009,09,29,04,07,6.40
2009,09,29,04,08,6.40
2009,09,29,04,09,6.40
2009,09,29,04,10,6.40
2009,09,29,04,11,6.40
2009,09,29,04,12,6.40
2009,09,29,04,13,6.50
2009,09,29,04,14,6.50
2009,09,29,04,15,6.50
2009,09,29,04,16,6.50
2009,09,29,04,17,6.50
2009,09,29,04,18,6.50
2009,09,29,04,19,6.50
2009,09,29,04,20,6.60
2009,09,29,04,21,6.80
2009,09,29,04,22,6.90
2009,09,29,04,23,7.00
2009,09,29,04,24,7.10
2009,09,29,04,25,7.30
2009,09,29,04,26,7.40
2009,09,29,04,27,7.50
2009,09,29,04,28,7.60
2009,09,29,04,29,7.70
2009,09,29,04,30,7.80
2009,09,29,04,31,7.90
2009,09,29,04,32,8.00
2009,09,29,04,33,8.00
2009,09,29,04,34,8.10
2009,09,29,04,35,8.20
2009,09,29,04,36,8.20
2009,09,29,04,37,8.20
2009,09,29,04,38,8.30
2009,09,29,04,39,8.30
2009,09,29,04,40,8.30
2009,09,29,04,41,8.40
2009,09,29,04,42,8.40
2009,09,29,04,43,8.40
2009,09,29,04,44,8.50
2009,09,29,04,45,8.50
2009,09,29,04,46,8.50
2009,09,29,04,47,8.60
2009,09,29,04,48,8.60
2009,09,29,04,49,8.60
2009,09,29,04,50,8.60
2009,09,29,04,51,8.60
2009,09,29,04,52,8.60
2009,09,29,04,53,8.50
2009,09,29,04,54,8.50
2009,09,29,04,55,8.50
2009,09,29,04,56,8.40
2009,09,29,04,57,8.40
2009,09,29,04,58,8.40
2009,09,29,04,59,8.30
2009,09,29,05,00,8.30
2009,09,29,05,01,8.30
2009,09,29,05,02,8.30
2009,09,29,05,03,8.20
2009,09,29,05,04,8.20
2009,09,29,05,05,8.20
2009,09,29,05,06,8.10
2009,09,29,05,07,8.10
2009,09,29,05,08,8.10
2009,09,29,05,09,8.10
2009,09,29,05,10,8.00
2009,09,29,05,11,8.00
2009,09,29,05,12,7.90
2009,09,29,05,13,7.90
2009,09,29,05,14,7.90
2009,09,29,05,15,7.90
2009,09,29,05,16,7.80
2009,09,29,05,17,7.80
2009,09,29,05,18,7.80
2009,09,29,05,19,7.70
2009,09,29,05,20,7.70
2009,09,29,05,21,7.70
2009,09,29,05,22,7.70
2009,09,29,05,23,7.70
2009,09,29,05,24,7.70
2009,09,29,05,25,7.70
2009,09,29,05,26,7.70
2009,09,29,05,27,7.70
2009,09,29,05,28,7.70
2009,09,29,05,29,7.70
2009,09,29,05,30,7.70
2009,09,29,05,31,7.70
2009,09,29,05,32,7.70
2009,09,29,05,33,7.70
2009,09,29,05,34,7.70
2009,09,29,05,35,7.70
2009,09,29,05,36,7.80
2009,09,29,05,37,7.80
2009,09,29,05,38,7.80
2009,09,29,05,39,7.80
2009,09,29,05,40,7.80
2009,09,29,05,41,7.80
2009,09,29,05,42,7.80
2009,09,29,05,43,7.80
2009,09,29,05,44,7.80
2009,09,29,05,45,7.80
2009,09,29,05,46,7.80
2009,09,29,05,47,7.80
2009,09,29,05,48,7.70
2009,09,29,05,49,7.70
2009,09,29,05,50,7.70
2009,09,29,05,51,7.70
2009,09,29,05,52,7.70
2009,09,29,05,53,7.70
2009,09,29,05,54,7.70
2009,09,29,05,55,7.60
2009,09,29,05,56,7.60
2009,09,29,05,57,7.60
2009,09,29,05,58,7.60
2009,09,29,05,59,7.60
2009,09,29,06,00,7.60
2009,09,29,06,01,7.60
2009,09,29,06,02,7.60
2009,09,29,06,03,7.50
2009,09,29,06,04,7.50
2009,09,29,06,05,7.50
2009,09,29,06,06,7.40
2009,09,29,06,07,7.40
2009,09,29,06,08,7.40
2009,09,29,06,09,7.40
2009,09,29,06,10,7.40
2009,09,29,06,11,7.40
2009,09,29,06,12,7.40
2009,09,29,06,13,7.30
2009,09,29,06,14,7.30
2009,09,29,06,15,7.30
2009,09,29,06,16,7.30
2009,09,29,06,17,7.30
2009,09,29,06,18,7.30
2009,09,29,06,19,7.30
2009,09,29,06,20,7.30
2009,09,29,06,21,7.20
2009,09,29,06,22,7.20
2009,09,29,06,23,7.20
2009,09,29,06,24,7.20
2009,09,29,06,25,7.20
2009,09,29,06,26,7.20
2009,09,29,06,27,7.20
2009,09,29,06,28,7.20
2009,09,29,06,29,7.20
2009,09,29,06,30,7.20
2009,09,29,06,31,7.20
2009,09,29,06,32,7.20
2009,09,29,06,33,7.10
2009,09,29,06,34,7.10
2009,09,29,06,35,7.10
2009,09,29,06,36,7.10
2009,09,29,06,37,7.10
2009,09,29,06,38,7.10
2009,09,29,06,39,7.10
2009,09,29,06,40,7.10
2009,09,29,06,41,7.10
2009,09,29,06,42,7.10
2009,09,29,06,43,7.10
2009,09,29,06,44,7.10
2009,09,29,06,45,7.10
2009,09,29,06,46,7.10
2009,09,29,06,47,7.10
2009,09,29,06,48,7.10
2009,09,29,06,49,7.10
2009,09,29,06,50,7.10
2009,09,29,06,51,7.10
2009,09,29,06,52,7.10
2009,09,29,06,53,7.10
2009,09,29,06,54,7.10
2009,09,29,06,55,7.00
2009,09,29,06,56,7.00
2009,09,29,06,57,7.00
2009,09,29,06,58,7.00
2009,09,29,06,59,7.00
2009,09,29,07,00,7.00
2009,09,29,07,01,7.00
2009,09,29,07,02,6.90
2009,09,29,07,03,6.90
2009,09,29,07,04,6.90
2009,09,29,07,05,6.90
2009,09,29,07,06,6.90
2009,09,29,07,07,6.90
2009,09,29,07,08,6.90
2009,09,29,07,09,6.90
2009,09,29,07,10,6.90
2009,09,29,07,11,6.90
2009,09,29,07,12,6.90
2009,09,29,07,13,6.90
2009,09,29,07,14,6.90
2009,09,29,07,15,6.90
2009,09,29,07,16,6.90
2009,09,29,07,17,6.90
2009,09,29,07,18,6.90
2009,09,29,07,19,6.90
2009,09,29,07,20,6.90
2009,09,29,07,21,6.90
2009,09,29,07,22,6.90
2009,09,29,07,23,6.90
2009,09,29,07,24,6.90
2009,09,29,07,25,6.90
2009,09,29,07,26,7.00
2009,09,29,07,27,6.90
2009,09,29,07,28,7.00
2009,09,29,07,29,7.00
2009,09,29,07,30,7.00
2009,09,29,07,31,7.00
2009,09,29,07,32,7.00
2009,09,29,07,33,7.00
2009,09,29,07,34,7.00
2009,09,29,07,35,7.00
2009,09,29,07,36,7.00
2009,09,29,07,37,7.00
2009,09,29,07,38,7.00
2009,09,29,07,39,7.00
2009,09,29,07,40,7.00
2009,09,29,07,41,7.10
2009,09,29,07,42,7.10
2009,09,29,07,43,7.10
2009,09,29,07,44,7.10
2009,09,29,07,45,7.10
2009,09,29,07,46,7.10
2009,09,29,07,47,7.10
2009,09,29,07,48,7.10
2009,09,29,07,49,7.10
2009,09,29,07,50,7.10
2009,09,29,07,51,7.10
2009,09,29,07,52,7.10
2009,09,29,07,53,7.10
2009,09,29,07,54,7.10
2009,09,29,07,55,7.10
2009,09,29,07,56,7.20
2009,09,29,07,57,7.20
2009,09,29,07,58,7.20
2009,09,29,07,59,7.20
2009,09,29,08,00,7.20
2009,09,29,08,01,7.20
2009,09,29,08,02,7.20
2009,09,29,08,03,7.20
2009,09,29,08,04,7.20
2009,09,29,08,05,7.20
2009,09,29,08,06,7.20
2009,09,29,08,07,7.20
2009,09,29,08,08,7.20
2009,09,29,08,09,7.20
2009,09,29,08,10,7.20
2009,09,29,08,11,7.30
2009,09,29,08,12,7.30
2009,09,29,08,13,7.30
2009,09,29,08,14,7.30
2009,09,29,08,15,7.30
2009,09,29,08,16,7.30
2009,09,29,08,17,7.30
2009,09,29,08,18,7.30
2009,09,29,08,19,7.30
2009,09,29,08,20,7.30
2009,09,29,08,21,7.30
2009,09,29,08,22,7.30
2009,09,29,08,23,7.30
2009,09,29,08,24,7.30
2009,09,29,08,25,7.40
2009,09,29,08,26,7.40
2009,09,29,08,27,7.40
2009,09,29,08,28,7.40
2009,09,29,08,29,7.40
2009,09,29,08,30,7.50
2009,09,29,08,31,7.50
2009,09,29,08,32,7.50
2009,09,29,08,33,7.60
2009,09,29,08,34,7.60
2009,09,29,08,35,7.60
2009,09,29,08,36,7.60
2009,09,29,08,37,7.60
2009,09,29,08,38,7.60
2009,09,29,08,39,7.70
2009,09,29,08,40,7.70
2009,09,29,08,41,7.70
2009,09,29,08,42,7.70
2009,09,29,08,43,7.70
2009,09,29,08,44,7.70
2009,09,29,08,45,7.70
2009,09,29,08,46,7.70
2009,09,29,08,47,7.70
2009,09,29,08,48,7.80
2009,09,29,08,49,7.80
2009,09,29,08,50,7.80
2009,09,29,08,51,7.80
2009,09,29,08,52,7.80
2009,09,29,08,53,7.80
2009,09,29,08,54,7.80
2009,09,29,08,55,7.80
2009,09,29,08,56,7.90
2009,09,29,08,57,7.90
2009,09,29,08,58,7.90
2009,09,29,08,59,7.90
2009,09,29,09,00,7.90
2009,09,29,09,01,7.90
2009,09,29,09,02,7.90
2009,09,29,09,03,8.00
2009,09,29,09,04,8.00
2009,09,29,09,05,8.00
2009,09,29,09,06,8.00
2009,09,29,09,07,8.00
2009,09,29,09,08,8.10
2009,09,29,09,09,8.10
2009,09,29,09,10,8.10
2009,09,29,09,11,8.10
2009,09,29,09,12,8.10
2009,09,29,09,13,8.10
2009,09,29,09,14,8.10
2009,09,29,09,15,8.10
2009,09,29,09,16,8.10
2009,09,29,09,17,8.10
2009,09,29,09,18,8.20
2009,09,29,09,19,8.20
2009,09,29,09,20,8.20
2009,09,29,09,21,8.20
2009,09,29,09,22,8.20
2009,09,29,09,23,8.20
2009,09,29,09,24,8.20
2009,09,29,09,25,8.20
2009,09,29,09,26,8.20
2009,09,29,09,27,8.30
2009,09,29,09,28,8.30
2009,09,29,09,29,8.30
2009,09,29,09,30,8.30
2009,09,29,09,31,8.30
2009,09,29,09,32,8.30
2009,09,29,09,33,8.30
2009,09,29,09,34,8.30
2009,09,29,09,35,8.30
2009,09,29,09,36,8.30
2009,09,29,09,37,8.40
2009,09,29,09,38,8.40
2009,09,29,09,39,8.40
2009,09,29,09,40,8.40
2009,09,29,09,41,8.40
2009,09,29,09,42,8.40
2009,09,29,09,43,8.40
2009,09,29,09,44,8.40
2009,09,29,09,45,8.40
2009,09,29,09,46,8.40
2009,09,29,09,47,8.40
2009,09,29,09,48,8.40
2009,09,29,09,49,8.40
2009,09,29,09,50,8.40
2009,09,29,09,51,8.40
2009,09,29,09,52,8.40
2009,09,29,09,53,8.40
2009,09,29,09,54,8.40
2009,09,29,09,55,8.40
2009,09,29,09,56,8.40
2009,09,29,09,57,8.40
2009,09,29,09,58,8.50
2009,09,29,09,59,8.50
2009,09,29,10,00,8.50
2009,09,29,10,01,8.50
2009,09,29,10,02,8.50
2009,09,29,10,03,8.50
2009,09,29,10,04,8.60
2009,09,29,10,05,8.60
2009,09,29,10,06,8.60
2009,09,29,10,07,8.50
2009,09,29,10,08,8.50
2009,09,29,10,09,8.50
2009,09,29,10,10,8.50
2009,09,29,10,11,8.50
2009,09,29,10,12,8.50
2009,09,29,10,13,8.50
2009,09,29,10,14,8.40
2009,09,29,10,15,8.50
2009,09,29,10,16,8.40
2009,09,29,10,17,8.40
2009,09,29,10,18,8.40
2009,09,29,10,19,8.40
2009,09,29,10,20,8.40
2009,09,29,10,21,8.40
2009,09,29,10,22,8.40
2009,09,29,10,23,8.40
2009,09,29,10,24,8.40
2009,09,29,10,25,8.40
2009,09,29,10,26,8.40
2009,09,29,10,27,8.40
2009,09,29,10,28,8.40
2009,09,29,10,29,8.40
2009,09,29,10,30,8.40
2009,09,29,10,31,8.40
2009,09,29,10,32,8.40
2009,09,29,10,33,8.50
2009,09,29,10,34,8.50
2009,09,29,10,35,8.50
2009,09,29,10,36,8.50
2009,09,29,10,37,8.50
2009,09,29,10,38,8.50
2009,09,29,10,39,8.60
2009,09,29,10,40,8.60
2009,09,29,10,41,8.60
2009,09,29,10,42,8.60
2009,09,29,10,43,8.60
2009,09,29,10,44,8.60
2009,09,29,10,45,8.70
2009,09,29,10,46,8.70
2009,09,29,10,47,8.70
2009,09,29,10,48,8.70
2009,09,29,10,49,8.70
2009,09,29,10,50,8.80
2009,09,29,10,51,8.80
2009,09,29,10,52,8.80
2009,09,29,10,53,8.80
2009,09,29,10,54,8.80
2009,09,29,10,55,8.80
2009,09,29,10,56,8.80
2009,09,29,10,57,8.90
2009,09,29,10,58,8.90
2009,09,29,10,59,8.90
2009,09,29,11,00,8.90
2009,09,29,11,01,8.90
2009,09,29,11,02,8.90
2009,09,29,11,03,8.90
2009,09,29,11,04,8.90
2009,09,29,11,05,8.90
2009,09,29,11,06,8.90
2009,09,29,11,07,9.00
2009,09,29,11,08,9.00
2009,09,29,11,09,9.00
2009,09,29,11,10,9.10
2009,09,29,11,11,9.10
2009,09,29,11,12,9.10
2009,09,29,11,13,9.10
2009,09,29,11,14,9.10
2009,09,29,11,15,9.20
2009,09,29,11,16,9.20
2009,09,29,11,17,9.20
2009,09,29,11,18,9.20
2009,09,29,11,19,9.20
2009,09,29,11,20,9.20
2009,09,29,11,21,9.20
2009,09,29,11,22,9.20
2009,09,29,11,23,9.30
2009,09,29,11,24,9.30
2009,09,29,11,25,9.30
2009,09,29,11,26,9.30
2009,09,29,11,27,9.30
2009,09,29,11,28,9.30
2009,09,29,11,29,9.30
2009,09,29,11,30,9.20
2009,09,29,11,31,9.20
2009,09,29,11,32,9.20
2009,09,29,11,33,9.10
2009,09,29,11,34,9.10
2009,09,29,11,35,9.10
2009,09,29,11,36,9.00
2009,09,29,11,37,8.90
2009,09,29,11,38,8.90
2009,09,29,11,39,8.90
2009,09,29,11,40,8.80
2009,09,29,11,41,8.80
2009,09,29,11,42,8.80
2009,09,29,11,43,8.80
2009,09,29,11,44,8.70
2009,09,29,11,45,8.70
2009,09,29,11,46,8.70
2009,09,29,11,47,8.70
2009,09,29,11,48,8.70
2009,09,29,11,49,8.70
2009,09,29,11,50,8.70
2009,09,29,11,51,8.70
2009,09,29,11,52,8.60
2009,09,29,11,53,8.60
2009,09,29,11,54,8.60
2009,09,29,11,55,8.60
2009,09,29,11,56,8.60
2009,09,29,11,57,8.60
2009,09,29,11,58,8.60
2009,09,29,11,59,8.60
2009,09,29,12,00,8.60
2009,09,29,12,01,8.60
2009,09,29,12,02,8.60
2009,09,29,12,03,8.60
2009,09,29,12,04,8.60
2009,09,29,12,05,8.60
2009,09,29,12,06,8.60
2009,09,29,12,07,8.60
2009,09,29,12,08,8.60
2009,09,29,12,09,8.60
2009,09,29,12,10,8.60
2009,09,29,12,11,8.70
2009,09,29,12,12,8.70
2009,09,29,12,13,8.70
2009,09,29,12,14,8.70
2009,09,29,12,15,8.70
2009,09,29,12,16,8.70
2009,09,29,12,17,8.80
2009,09,29,12,18,8.80
2009,09,29,12,19,8.80
2009,09,29,12,20,8.80
2009,09,29,12,21,8.80
2009,09,29,12,22,8.80
2009,09,29,12,23,8.80
2009,09,29,12,24,8.80
2009,09,29,12,25,8.90
2009,09,29,12,26,8.90
2009,09,29,12,27,8.90
2009,09,29,12,28,8.90
2009,09,29,12,29,9.00
2009,09,29,12,30,9.10
2009,09,29,12,31,9.10
2009,09,29,12,32,9.20
2009,09,29,12,33,9.30
2009,09,29,12,34,9.30
2009,09,29,12,35,9.40
2009,09,29,12,36,9.40
2009,09,29,12,37,9.40
2009,09,29,12,38,9.40
2009,09,29,12,39,9.50
2009,09,29,12,40,9.60
2009,09,29,12,41,9.60
2009,09,29,12,42,9.70
2009,09,29,12,43,9.70
2009,09,29,12,44,9.80
2009,09,29,12,45,9.80
2009,09,29,12,46,9.80
2009,09,29,12,47,9.80
2009,09,29,12,48,9.90
2009,09,29,12,49,9.90
2009,09,29,12,50,9.90
2009,09,29,12,51,9.90
2009,09,29,12,52,9.90
2009,09,29,12,53,10.00
2009,09,29,12,54,10.00
2009,09,29,12,55,10.10
2009,09,29,12,56,10.10
2009,09,29,12,57,10.20
2009,09,29,12,58,10.20
2009,09,29,12,59,10.30
2009,09,29,13,00,10.30
2009,09,29,13,01,10.40
2009,09,29,13,02,10.40
2009,09,29,13,03,10.50
2009,09,29,13,04,10.50
2009,09,29,13,05,10.60
2009,09,29,13,06,10.60
2009,09,29,13,07,10.70
2009,09,29,13,08,10.70
2009,09,29,13,09,10.70
2009,09,29,13,10,10.80
2009,09,29,13,11,10.80
2009,09,29,13,12,10.90
2009,09,29,13,13,11.00
2009,09,29,13,14,11.00
2009,09,29,13,15,11.10
2009,09,29,13,16,11.10
2009,09,29,13,17,11.10
2009,09,29,13,18,11.10
2009,09,29,13,19,11.10
2009,09,29,13,20,11.10
2009,09,29,13,21,11.10
2009,09,29,13,22,11.10
2009,09,29,13,23,11.10
2009,09,29,13,24,11.10
2009,09,29,13,25,11.20
2009,09,29,13,26,11.20
2009,09,29,13,27,11.20
2009,09,29,13,28,11.20
2009,09,29,13,29,11.20
2009,09,29,13,30,11.20
2009,09,29,13,31,11.30
2009,09,29,13,32,11.30
2009,09,29,13,33,11.30
2009,09,29,13,34,11.30
2009,09,29,13,35,11.30
2009,09,29,13,36,11.30
2009,09,29,13,37,11.30
2009,09,29,13,38,11.30
2009,09,29,13,39,11.30
2009,09,29,13,40,11.30
2009,09,29,13,41,11.40
2009,09,29,13,42,11.40
2009,09,29,13,43,11.50
2009,09,29,13,44,11.50
2009,09,29,13,45,11.50
2009,09,29,13,46,11.50
2009,09,29,13,47,11.50
2009,09,29,13,48,11.50
2009,09,29,13,49,11.50
2009,09,29,13,50,11.50
2009,09,29,13,51,11.50
2009,09,29,13,52,11.60
2009,09,29,13,53,11.60
2009,09,29,13,54,11.60
2009,09,29,13,55,11.60
2009,09,29,13,56,11.60
2009,09,29,13,57,11.60
2009,09,29,13,58,11.60
2009,09,29,13,59,11.60
2009,09,29,14,00,11.70
2009,09,29,14,01,11.70
2009,09,29,14,02,11.70
2009,09,29,14,03,11.70
2009,09,29,14,04,11.70
2009,09,29,14,05,11.60
2009,09,29,14,06,11.70
2009,09,29,14,07,11.70
2009,09,29,14,08,11.70
2009,09,29,14,09,11.80
2009,09,29,14,10,11.80
2009,09,29,14,11,11.80
2009,09,29,14,12,11.80
2009,09,29,14,13,11.90
2009,09,29,14,14,11.90
2009,09,29,14,15,11.90
2009,09,29,14,16,11.90
2009,09,29,14,17,11.90
2009,09,29,14,18,11.90
2009,09,29,14,19,11.90
2009,09,29,14,20,11.90
2009,09,29,14,21,11.90
2009,09,29,14,22,12.00
2009,09,29,14,23,12.00
2009,09,29,14,24,12.10
2009,09,29,14,25,12.10
2009,09,29,14,26,12.10
2009,09,29,14,27,12.10
2009,09,29,14,28,12.10
2009,09,29,14,29,12.10
2009,09,29,14,30,12.10
2009,09,29,14,31,12.10
2009,09,29,14,32,12.10
2009,09,29,14,33,12.10
2009,09,29,14,34,12.20
2009,09,29,14,35,12.20
2009,09,29,14,36,12.10
2009,09,29,14,37,12.10
2009,09,29,14,38,12.10
2009,09,29,14,39,12.00
2009,09,29,14,40,12.00
2009,09,29,14,41,11.90
2009,09,29,14,42,11.90
2009,09,29,14,43,11.90
2009,09,29,14,44,11.80
2009,09,29,14,45,11.80
2009,09,29,14,46,11.80
2009,09,29,14,47,11.80
2009,09,29,14,48,11.80
2009,09,29,14,49,11.80
2009,09,29,14,50,11.90
2009,09,29,14,51,12.00
2009,09,29,14,52,12.00
2009,09,29,14,53,12.10
2009,09,29,14,54,12.10
2009,09,29,14,55,12.20
2009,09,29,14,56,12.20
2009,09,29,14,57,12.20
2009,09,29,14,58,12.20
2009,09,29,14,59,12.30
2009,09,29,15,00,12.30
2009,09,29,15,01,12.30
2009,09,29,15,02,12.30
2009,09,29,15,03,12.30
2009,09,29,15,04,12.30
2009,09,29,15,05,12.30
2009,09,29,15,06,12.30
2009,09,29,15,07,12.30
2009,09,29,15,08,12.30
2009,09,29,15,09,12.20
2009,09,29,15,10,12.20
2009,09,29,15,11,12.20
2009,09,29,15,12,12.30
2009,09,29,15,13,12.30
2009,09,29,15,14,12.30
2009,09,29,15,15,12.30
2009,09,29,15,16,12.30
2009,09,29,15,17,12.30
2009,09,29,15,18,12.30
2009,09,29,15,19,12.30
2009,09,29,15,20,12.30
2009,09,29,15,21,12.40
2009,09,29,15,22,12.40
2009,09,29,15,23,12.40
2009,09,29,15,24,12.40
2009,09,29,15,25,12.40
2009,09,29,15,26,12.40
2009,09,29,15,27,12.40
2009,09,29,15,28,12.40
2009,09,29,15,29,12.50
2009,09,29,15,30,12.60
2009,09,29,15,31,12.60
2009,09,29,15,32,12.60
2009,09,29,15,33,12.60
2009,09,29,15,34,12.60
2009,09,29,15,35,12.60
2009,09,29,15,36,12.60
2009,09,29,15,37,12.60
2009,09,29,15,38,12.60
2009,09,29,15,39,12.70
2009,09,29,15,40,12.70
2009,09,29,15,41,12.70
2009,09,29,15,42,12.70
2009,09,29,15,43,12.80
2009,09,29,15,44,12.80
2009,09,29,15,45,12.80
2009,09,29,15,46,12.70
2009,09,29,15,47,12.70
2009,09,29,15,48,12.60
2009,09,29,15,49,12.60
2009,09,29,15,50,12.60
2009,09,29,15,51,12.60
2009,09,29,15,52,12.60
2009,09,29,15,53,12.70
2009,09,29,15,54,12.70
2009,09,29,15,55,12.70
2009,09,29,15,56,12.70
2009,09,29,15,57,12.70
2009,09,29,15,58,12.70
2009,09,29,15,59,12.60
2009,09,29,16,00,12.60
2009,09,29,16,01,12.60
2009,09,29,16,02,12.60
2009,09,29,16,03,12.60
2009,09,29,16,04,12.60
2009,09,29,16,05,12.50
2009,09,29,16,06,12.50
2009,09,29,16,07,12.40
2009,09,29,16,08,12.40
2009,09,29,16,09,12.40
2009,09,29,16,10,12.40
2009,09,29,16,11,12.50
2009,09,29,16,12,12.50
2009,09,29,16,13,12.60
2009,09,29,16,14,12.60
2009,09,29,16,15,12.60
2009,09,29,16,16,12.70
2009,09,29,16,17,12.70
2009,09,29,16,18,12.80
2009,09,29,16,19,12.80
2009,09,29,16,20,12.80
2009,09,29,16,21,12.90
2009,09,29,16,22,12.90
2009,09,29,16,23,12.90
2009,09,29,16,24,12.90
2009,09,29,16,25,12.90
2009,09,29,16,26,12.90
2009,09,29,16,27,12.80
2009,09,29,16,28,12.80
2009,09,29,16,29,12.80
2009,09,29,16,30,12.80
2009,09,29,16,31,12.70
2009,09,29,16,32,12.70
2009,09,29,16,33,12.60
2009,09,29,16,34,12.60
2009,09,29,16,35,12.50
2009,09,29,16,36,12.50
2009,09,29,16,37,12.40
2009,09,29,16,38,12.40
2009,09,29,16,39,12.40
2009,09,29,16,40,12.30
2009,09,29,16,41,12.30
2009,09,29,16,42,12.20
2009,09,29,16,43,12.20
2009,09,29,16,44,12.20
2009,09,29,16,45,12.20
2009,09,29,16,46,12.20
2009,09,29,16,47,12.20
2009,09,29,16,48,12.20
2009,09,29,16,49,12.30
2009,09,29,16,50,12.30
2009,09,29,16,51,12.30
2009,09,29,16,52,12.30
2009,09,29,16,53,12.30
2009,09,29,16,54,12.30
2009,09,29,16,55,12.30
2009,09,29,16,56,12.30
2009,09,29,16,57,12.30
2009,09,29,16,58,12.30
2009,09,29,16,59,12.30
2009,09,29,17,00,12.30
2009,09,29,17,01,12.30
2009,09,29,17,02,12.30
2009,09,29,17,03,12.30
2009,09,29,17,04,12.30
2009,09,29,17,05,12.30
2009,09,29,17,06,12.30
2009,09,29,17,07,12.30
2009,09,29,17,08,12.20
2009,09,29,17,09,12.20
2009,09,29,17,10,12.30
2009,09,29,17,11,12.30
2009,09,29,17,12,12.30
2009,09,29,17,13,12.30
2009,09,29,17,14,12.30
2009,09,29,17,15,12.30
2009,09,29,17,16,12.30
2009,09,29,17,17,12.30
2009,09,29,17,18,12.30
2009,09,29,17,19,12.30
2009,09,29,17,20,12.30
2009,09,29,17,21,12.30
2009,09,29,17,22,12.30
2009,09,29,17,23,12.40
2009,09,29,17,24,12.40
2009,09,29,17,25,12.40
2009,09,29,17,26,12.30
2009,09,29,17,27,12.30
2009,09,29,17,28,12.30
2009,09,29,17,29,12.30
2009,09,29,17,30,12.30
2009,09,29,17,31,12.30
2009,09,29,17,32,12.30
2009,09,29,17,33,12.30
2009,09,29,17,34,12.30
2009,09,29,17,35,12.30
2009,09,29,17,36,12.30
2009,09,29,17,37,12.30
2009,09,29,17,38,12.20
2009,09,29,17,39,12.20
2009,09,29,17,40,12.20
2009,09,29,17,41,12.20
2009,09,29,17,42,12.10
2009,09,29,17,43,12.10
2009,09,29,17,44,12.00
2009,09,29,17,45,12.00
2009,09,29,17,46,12.00
2009,09,29,17,47,11.90
2009,09,29,17,48,11.90
2009,09,29,17,49,11.90
2009,09,29,17,50,11.90
2009,09,29,17,51,11.90